• In Uzbekistan
  • List of Countries
  • For 7 days
  • Water Temperature
  • Satellite Maps
  • Weather Map
  • Weather Widgets
  • user-avatar
    Login

    Hourly Weather Annaba

    Today, 28 May, Sunday

    Time Temperature Precipitation Wind Pressure Humidity
    00:00 +20°C° 0 mm 4 mps 761 mmHg 76%
    01:00 +19°C° 0 mm 4 mps 761 mmHg 78%
    02:00 +19°C° 0 mm 4 mps 761 mmHg 79%
    03:00 +19°C° 0 mm 4 mps 761 mmHg 80%
    04:00 +19°C° 0 mm 4 mps 760 mmHg 81%
    05:00 +20°C° 0 mm 4 mps 761 mmHg 74%
    06:00 +22°C° 0 mm 4 mps 761 mmHg 68%
    07:00 +23°C° 0 mm 4 mps 761 mmHg 61%
    08:00 +26°C° 0 mm 4 mps 761 mmHg 54%
    09:00 +28°C° 0 mm 4 mps 761 mmHg 47%
    10:00 +30°C° 0 mm 5 mps 761 mmHg 41%
    11:00 +32°C° 0 mm 5 mps 761 mmHg 38%
    12:00 +33°C° 0 mm 6 mps 760 mmHg 35%
    13:00 +34°C° 0 mm 7 mps 760 mmHg 32%
    14:00 +34°C° 0 mm 7 mps 760 mmHg 33%
    15:00 +34°C° 0 mm 8 mps 759 mmHg 33%
    16:00 +33°C° 0 mm 8 mps 759 mmHg 33%
    17:00 +32°C° 0 mm 8 mps 759 mmHg 37%
    18:00 +29°C° 0 mm 7 mps 759 mmHg 41%
    19:00 +27°C° 0 mm 7 mps 759 mmHg 45%
    20:00 +24°C° 0 mm 6 mps 760 mmHg 53%
    21:00 +22°C° 0 mm 6 mps 760 mmHg 60%
    22:00 +20°C° 0 mm 5 mps 761 mmHg 67%
    23:00 +20°C° 0 mm 5 mps 760 mmHg 67%

    Tomorrow, 29 May, Monday

    Time Temperature Precipitation Wind Pressure Humidity
    00:00 +19°C° 0 mm 4 mps 760 mmHg 67%
    01:00 +19°C° 0 mm 4 mps 760 mmHg 67%
    02:00 +19°C° 0 mm 4 mps 760 mmHg 67%
    03:00 +19°C° 0 mm 4 mps 759 mmHg 67%
    04:00 +19°C° 0 mm 4 mps 759 mmHg 67%
    05:00 +20°C° 0 mm 4 mps 759 mmHg 63%
    06:00 +21°C° 0 mm 4 mps 759 mmHg 58%
    07:00 +23°C° 0 mm 4 mps 759 mmHg 53%
    08:00 +26°C° 0 mm 4 mps 759 mmHg 47%
    09:00 +28°C° 0 mm 4 mps 759 mmHg 41%
    10:00 +32°C° 0 mm 4 mps 759 mmHg 35%
    11:00 +33°C° 0 mm 5 mps 759 mmHg 32%
    12:00 +34°C° 0 mm 5 mps 758 mmHg 29%
    13:00 +35°C° 0 mm 6 mps 758 mmHg 26%
    14:00 +35°C° 0 mm 6 mps 758 mmHg 26%
    15:00 +35°C° 0 mm 6 mps 758 mmHg 27%
    16:00 +35°C° 0 mm 7 mps 757 mmHg 27%
    17:00 +33°C° 0 mm 6 mps 758 mmHg 33%
    18:00 +30°C° 0 mm 6 mps 758 mmHg 38%
    19:00 +28°C° 0 mm 5 mps 758 mmHg 44%
    20:00 +26°C° 0 mm 5 mps 758 mmHg 52%
    21:00 +23°C° 0 mm 4 mps 759 mmHg 60%
    22:00 +20°C° 0 mm 4 mps 759 mmHg 67%
    23:00 +20°C° 0 mm 4 mps 759 mmHg 66%

    Day after tomorrow, 30 May, Tuesday

    Time Temperature Precipitation Wind Pressure Humidity
    00:00 +20°C° 0 mm 4 mps 759 mmHg 65%
    01:00 +20°C° 0 mm 3 mps 758 mmHg 64%
    02:00 +20°C° 0 mm 3 mps 759 mmHg 65%
    03:00 +19°C° 0 mm 3 mps 759 mmHg 66%
    04:00 +19°C° 0 mm 3 mps 759 mmHg 68%
    05:00 +20°C° 0 mm 3 mps 759 mmHg 65%
    06:00 +23°C° 0 mm 2 mps 759 mmHg 62%
    07:00 +24°C° 0 mm 2 mps 759 mmHg 60%
    08:00 +26°C° 0 mm 2 mps 760 mmHg 55%
    09:00 +27°C° 0 mm 2 mps 760 mmHg 50%
    10:00 +29°C° 0 mm 2 mps 760 mmHg 45%
    11:00 +30°C° 0 mm 3 mps 760 mmHg 45%
    12:00 +30°C° 0 mm 4 mps 760 mmHg 45%
    13:00 +32°C° 0 mm 5 mps 760 mmHg 45%
    14:00 +30°C° 0.1 mm 5 mps 760 mmHg 49%
    15:00 +30°C° 0.1 mm 5 mps 760 mmHg 54%
    16:00 +29°C° 0.1 mm 5 mps 760 mmHg 58%
    17:00 +27°C° 0.1 mm 4 mps 760 mmHg 64%
    18:00 +26°C° 0.1 mm 3 mps 760 mmHg 70%
    19:00 +25°C° 0.1 mm 2 mps 760 mmHg 76%
    20:00 +23°C° 0.2 mm 1 mps 761 mmHg 82%
    21:00 +22°C° 0.2 mm 1 mps 761 mmHg 87%
    22:00 +21°C° 0.2 mm 1 mps 762 mmHg 93%
    23:00 +21°C° 0 mm 1 mps 762 mmHg 92%

    31 May, Wednesday

    Time Temperature Precipitation Wind Pressure Humidity
    00:00 +21°C° 0 mm 1 mps 761 mmHg 92%
    01:00 +21°C° 0 mm 1 mps 761 mmHg 91%
    02:00 +21°C° 0 mm 1 mps 761 mmHg 89%
    03:00 +21°C° 0 mm 1 mps 761 mmHg 86%
    04:00 +22°C° 0 mm 1 mps 761 mmHg 84%
    05:00 +23°C° 0 mm 1 mps 761 mmHg 78%
    06:00 +24°C° 0 mm 1 mps 761 mmHg 73%
    07:00 +25°C° 0 mm 1 mps 761 mmHg 67%
    08:00 +27°C° 0 mm 1 mps 762 mmHg 59%
    09:00 +29°C° 0 mm 2 mps 762 mmHg 52%
    10:00 +31°C° 0 mm 2 mps 762 mmHg 44%
    11:00 +33°C° 0 mm 3 mps 761 mmHg 42%
    12:00 +33°C° 0 mm 3 mps 761 mmHg 40%
    13:00 +34°C° 0 mm 4 mps 761 mmHg 37%
    14:00 +34°C° 0 mm 4 mps 761 mmHg 38%
    15:00 +34°C° 0 mm 5 mps 760 mmHg 39%
    16:00 +33°C° 0 mm 5 mps 760 mmHg 39%
    17:00 +30°C° 0.3 mm 4 mps 760 mmHg 47%
    18:00 +28°C° 0.3 mm 3 mps 760 mmHg 55%
    19:00 +26°C° 0.3 mm 2 mps 761 mmHg 63%
    20:00 +25°C° 0.4 mm 2 mps 761 mmHg 67%
    21:00 +24°C° 0.4 mm 2 mps 761 mmHg 71%
    22:00 +23°C° 0.4 mm 1 mps 762 mmHg 75%
    23:00 +23°C° 0.4 mm 2 mps 761 mmHg 74%

    1 June, Thursday

    Time Temperature Precipitation Wind Pressure Humidity
    00:00 +23°C° 0.4 mm 2 mps 761 mmHg 73%
    01:00 +21°C° 0.4 mm 2 mps 761 mmHg 73%
    02:00 +21°C° 0.3 mm 2 mps 761 mmHg 73%
    03:00 +21°C° 0.3 mm 2 mps 761 mmHg 74%
    04:00 +22°C° 0.3 mm 1 mps 761 mmHg 75%
    05:00 +23°C° 0.2 mm 1 mps 761 mmHg 73%
    06:00 +24°C° 0.2 mm 1 mps 761 mmHg 70%
    07:00 +25°C° 0.2 mm 1 mps 761 mmHg 68%
    08:00 +28°C° 0 mm 1 mps 761 mmHg 59%
    09:00 +30°C° 0 mm 1 mps 761 mmHg 50%
    10:00 +32°C° 0 mm 1 mps 761 mmHg 41%
    11:00 +32°C° 0 mm 1 mps 761 mmHg 40%
    12:00 +34°C° 0 mm 2 mps 761 mmHg 39%
    13:00 +34°C° 0 mm 3 mps 760 mmHg 38%
    14:00 +34°C° 0.1 mm 3 mps 760 mmHg 39%
    15:00 +33°C° 0.1 mm 4 mps 760 mmHg 40%
    16:00 +33°C° 0.1 mm 4 mps 760 mmHg 42%
    17:00 +30°C° 0.9 mm 3 mps 760 mmHg 49%
    18:00 +28°C° 0.9 mm 3 mps 760 mmHg 57%
    19:00 +27°C° 0.9 mm 2 mps 760 mmHg 65%
    20:00 +25°C° 0.4 mm 2 mps 761 mmHg 71%
    21:00 +23°C° 0.4 mm 2 mps 761 mmHg 78%
    22:00 +21°C° 0.4 mm 2 mps 761 mmHg 84%
    23:00 +21°C° 0.1 mm 2 mps 761 mmHg 82%

    2 June, Friday

    Time Temperature Precipitation Wind Pressure Humidity
    00:00 +21°C° 0.1 mm 2 mps 761 mmHg 79%
    01:00 +21°C° 0.1 mm 2 mps 761 mmHg 77%
    02:00 +22°C° 0 mm 1 mps 760 mmHg 78%
    03:00 +22°C° 0 mm 1 mps 760 mmHg 79%
    04:00 +21°C° 0 mm 1 mps 760 mmHg 80%
    05:00 +23°C° 0 mm 1 mps 760 mmHg 74%
    06:00 +25°C° 0 mm 1 mps 760 mmHg 69%
    07:00 +26°C° 0 mm 1 mps 761 mmHg 63%
    08:00 +28°C° 0 mm 1 mps 761 mmHg 57%
    09:00 +30°C° 0 mm 1 mps 761 mmHg 52%
    10:00 +32°C° 0 mm 1 mps 761 mmHg 46%
    11:00 +34°C° 0 mm 2 mps 760 mmHg 43%
    12:00 +35°C° 0 mm 3 mps 760 mmHg 41%
    13:00 +35°C° 0 mm 4 mps 760 mmHg 38%
    14:00 +35°C° 0 mm 4 mps 760 mmHg 40%
    15:00 +34°C° 0 mm 4 mps 760 mmHg 42%
    16:00 +34°C° 0 mm 4 mps 759 mmHg 44%
    17:00 +32°C° 0 mm 4 mps 760 mmHg 49%
    18:00 +29°C° 0 mm 3 mps 760 mmHg 53%
    19:00 +28°C° 0 mm 2 mps 760 mmHg 58%
    20:00 +26°C° 0 mm 2 mps 760 mmHg 67%
    21:00 +24°C° 0 mm 2 mps 761 mmHg 76%
    22:00 +21°C° 0 mm 1 mps 761 mmHg 85%
    23:00 +21°C° 0 mm 1 mps 761 mmHg 86%
    Show more